Location: Bosmont
(49.7318°N, 3.8587°E)
Time: 07:00:04
(UTC+00:00)

COSMO-SKYMED 1 - Pass Details

Date: 08 February 2023
Orbit: 621 x 623 km, 97.9° (Epoch: 30 March)

Event Time Altitude Azimuth Distance (km) Brightness Sun altitude
Rises 18:35:03 0° 8° (N) 2,921 5.9 -17.1°
Reaches altitude 10° 18:37:19 10° 2° (N) 2,009 5.1 -17.5°
Maximum altitude 18:41:27 43° 291° (WNW) 877 3.8 -18.2°
Drops below altitude 10° 18:45:34 10° 220° (SW) 1,992 5.7 -18.8°
Sets 18:47:49 0° 214° (SSW) 2,894 6.5 -19.2°
